<?xml version="1.0" encoding="UTF-8" standalone="no" ?>
<gpx xmlns="http://www.topografix.com/GPX/1/1" xmlns:xsi="http://www.w3.org/2001/XMLSchema-instance" xsi:schemaLocation="http://www.topografix.com/GPX/1/1 http://www.topografix.com/GPX/1/1/gpx.xsd" version="1.1" creator="VisuGPX - https://www.visugpx.com">
  <metadata>
    <name>15041405-PAT Chamrousse G3 Var</name>
  </metadata>
  <trk>
    <name><![CDATA[15041405-PAT Chamrousse G3 Var]]></name>
    <trkseg>
      <trkpt lat="45.10479" lon="5.8766">
        <ele>1733</ele>
        <time>2022-06-28T14:27:20Z</time>
      </trkpt>
      <trkpt lat="45.10461" lon="5.87698">
        <ele>1735</ele>
        <time>2022-06-28T14:28:03Z</time>
      </trkpt>
      <trkpt lat="45.10442" lon="5.87742">
        <ele>1738</ele>
        <time>2022-06-28T14:28:52Z</time>
      </trkpt>
      <trkpt lat="45.10367" lon="5.8789">
        <ele>1738</ele>
        <time>2022-06-28T14:31:43Z</time>
      </trkpt>
      <trkpt lat="45.10343" lon="5.87951">
        <ele>1735</ele>
        <time>2022-06-28T14:32:49Z</time>
      </trkpt>
      <trkpt lat="45.10337" lon="5.87973">
        <ele>1733</ele>
        <time>2022-06-28T14:33:11Z</time>
      </trkpt>
      <trkpt lat="45.10331" lon="5.87991">
        <ele>1732</ele>
        <time>2022-06-28T14:33:30Z</time>
      </trkpt>
      <trkpt lat="45.10324" lon="5.88001">
        <ele>1730</ele>
        <time>2022-06-28T14:33:43Z</time>
      </trkpt>
      <trkpt lat="45.10311" lon="5.88006">
        <ele>1727</ele>
        <time>2022-06-28T14:34:01Z</time>
      </trkpt>
      <trkpt lat="45.103" lon="5.88006">
        <ele>1724</ele>
        <time>2022-06-28T14:34:16Z</time>
      </trkpt>
      <trkpt lat="45.10297" lon="5.87981">
        <ele>1725</ele>
        <time>2022-06-28T14:34:40Z</time>
      </trkpt>
      <trkpt lat="45.10311" lon="5.87906">
        <ele>1727</ele>
        <time>2022-06-28T14:35:53Z</time>
      </trkpt>
      <trkpt lat="45.10322" lon="5.87882">
        <ele>1726</ele>
        <time>2022-06-28T14:36:20Z</time>
      </trkpt>
      <trkpt lat="45.1033" lon="5.87858">
        <ele>1725</ele>
        <time>2022-06-28T14:36:45Z</time>
      </trkpt>
      <trkpt lat="45.10337" lon="5.87831">
        <ele>1723</ele>
        <time>2022-06-28T14:37:12Z</time>
      </trkpt>
      <trkpt lat="45.10346" lon="5.87779">
        <ele>1719</ele>
        <time>2022-06-28T14:38:02Z</time>
      </trkpt>
      <trkpt lat="45.10352" lon="5.87725">
        <ele>1715</ele>
        <time>2022-06-28T14:38:54Z</time>
      </trkpt>
      <trkpt lat="45.10346" lon="5.87609">
        <ele>1707</ele>
        <time>2022-06-28T14:40:43Z</time>
      </trkpt>
      <trkpt lat="45.10344" lon="5.87587">
        <ele>1706</ele>
        <time>2022-06-28T14:41:04Z</time>
      </trkpt>
      <trkpt lat="45.10339" lon="5.87505">
        <ele>1700</ele>
        <time>2022-06-28T14:42:22Z</time>
      </trkpt>
      <trkpt lat="45.10332" lon="5.87495">
        <ele>1698</ele>
        <time>2022-06-28T14:42:35Z</time>
      </trkpt>
      <trkpt lat="45.10319" lon="5.8749">
        <ele>1696</ele>
        <time>2022-06-28T14:42:53Z</time>
      </trkpt>
      <trkpt lat="45.1031" lon="5.8749">
        <ele>1695</ele>
        <time>2022-06-28T14:43:05Z</time>
      </trkpt>
      <trkpt lat="45.10274" lon="5.87516">
        <ele>1692</ele>
        <time>2022-06-28T14:43:59Z</time>
      </trkpt>
      <trkpt lat="45.10208" lon="5.87572">
        <ele>1690</ele>
        <time>2022-06-28T14:45:42Z</time>
      </trkpt>
      <trkpt lat="45.10186" lon="5.87608">
        <ele>1690</ele>
        <time>2022-06-28T14:46:27Z</time>
      </trkpt>
      <trkpt lat="45.10177" lon="5.87632">
        <ele>1689</ele>
        <time>2022-06-28T14:46:52Z</time>
      </trkpt>
      <trkpt lat="45.10154" lon="5.87729">
        <ele>1690</ele>
        <time>2022-06-28T14:48:29Z</time>
      </trkpt>
      <trkpt lat="45.10145" lon="5.87726">
        <ele>1688</ele>
        <time>2022-06-28T14:48:41Z</time>
      </trkpt>
      <trkpt lat="45.10134" lon="5.87735">
        <ele>1687</ele>
        <time>2022-06-28T14:48:58Z</time>
      </trkpt>
      <trkpt lat="45.10124" lon="5.8773">
        <ele>1685</ele>
        <time>2022-06-28T14:49:12Z</time>
      </trkpt>
      <trkpt lat="45.10118" lon="5.87715">
        <ele>1683</ele>
        <time>2022-06-28T14:49:28Z</time>
      </trkpt>
      <trkpt lat="45.10096" lon="5.87706">
        <ele>1679</ele>
        <time>2022-06-28T14:49:59Z</time>
      </trkpt>
      <trkpt lat="45.10059" lon="5.87686">
        <ele>1673</ele>
        <time>2022-06-28T14:50:52Z</time>
      </trkpt>
      <trkpt lat="45.10049" lon="5.87682">
        <ele>1671</ele>
        <time>2022-06-28T14:51:05Z</time>
      </trkpt>
      <trkpt lat="45.10045" lon="5.87683">
        <ele>1671</ele>
        <time>2022-06-28T14:51:11Z</time>
      </trkpt>
      <trkpt lat="45.1004" lon="5.8768">
        <ele>1670</ele>
        <time>2022-06-28T14:51:18Z</time>
      </trkpt>
      <trkpt lat="45.10028" lon="5.87686">
        <ele>1668</ele>
        <time>2022-06-28T14:51:35Z</time>
      </trkpt>
      <trkpt lat="45.10016" lon="5.87699">
        <ele>1665</ele>
        <time>2022-06-28T14:51:55Z</time>
      </trkpt>
      <trkpt lat="45.10005" lon="5.8781">
        <ele>1652</ele>
        <time>2022-06-28T14:53:41Z</time>
      </trkpt>
      <trkpt lat="45.1" lon="5.8783">
        <ele>1648</ele>
        <time>2022-06-28T14:54:01Z</time>
      </trkpt>
      <trkpt lat="45.09993" lon="5.87841">
        <ele>1646</ele>
        <time>2022-06-28T14:54:15Z</time>
      </trkpt>
      <trkpt lat="45.09985" lon="5.87838">
        <ele>1644</ele>
        <time>2022-06-28T14:54:26Z</time>
      </trkpt>
      <trkpt lat="45.09972" lon="5.87823">
        <ele>1642</ele>
        <time>2022-06-28T14:54:48Z</time>
      </trkpt>
      <trkpt lat="45.09964" lon="5.87804">
        <ele>1642</ele>
        <time>2022-06-28T14:55:09Z</time>
      </trkpt>
      <trkpt lat="45.09958" lon="5.87798">
        <ele>1641</ele>
        <time>2022-06-28T14:55:19Z</time>
      </trkpt>
      <trkpt lat="45.09954" lon="5.87784">
        <ele>1641</ele>
        <time>2022-06-28T14:55:33Z</time>
      </trkpt>
      <trkpt lat="45.09946" lon="5.87789">
        <ele>1639</ele>
        <time>2022-06-28T14:55:45Z</time>
      </trkpt>
      <trkpt lat="45.09935" lon="5.8778">
        <ele>1637</ele>
        <time>2022-06-28T14:56:02Z</time>
      </trkpt>
      <trkpt lat="45.09925" lon="5.87756">
        <ele>1636</ele>
        <time>2022-06-28T14:56:28Z</time>
      </trkpt>
      <trkpt lat="45.09914" lon="5.87727">
        <ele>1636</ele>
        <time>2022-06-28T14:56:59Z</time>
      </trkpt>
      <trkpt lat="45.09908" lon="5.87717">
        <ele>1636</ele>
        <time>2022-06-28T14:57:11Z</time>
      </trkpt>
      <trkpt lat="45.09902" lon="5.87711">
        <ele>1635</ele>
        <time>2022-06-28T14:57:21Z</time>
      </trkpt>
      <trkpt lat="45.09895" lon="5.87707">
        <ele>1634</ele>
        <time>2022-06-28T14:57:31Z</time>
      </trkpt>
      <trkpt lat="45.09888" lon="5.87698">
        <ele>1634</ele>
        <time>2022-06-28T14:57:44Z</time>
      </trkpt>
      <trkpt lat="45.09885" lon="5.87689">
        <ele>1634</ele>
        <time>2022-06-28T14:57:53Z</time>
      </trkpt>
      <trkpt lat="45.09842" lon="5.87549">
        <ele>1626</ele>
        <time>2022-06-28T15:00:17Z</time>
      </trkpt>
      <trkpt lat="45.0979" lon="5.87438">
        <ele>1623</ele>
        <time>2022-06-28T15:02:23Z</time>
      </trkpt>
      <trkpt lat="45.09734" lon="5.87396">
        <ele>1622</ele>
        <time>2022-06-28T15:03:47Z</time>
      </trkpt>
      <trkpt lat="45.09708" lon="5.87386">
        <ele>1623</ele>
        <time>2022-06-28T15:04:23Z</time>
      </trkpt>
      <trkpt lat="45.09692" lon="5.87385">
        <ele>1623</ele>
        <time>2022-06-28T15:04:44Z</time>
      </trkpt>
      <trkpt lat="45.09635" lon="5.87434">
        <ele>1624</ele>
        <time>2022-06-28T15:06:13Z</time>
      </trkpt>
      <trkpt lat="45.09624" lon="5.87436">
        <ele>1624</ele>
        <time>2022-06-28T15:06:28Z</time>
      </trkpt>
      <trkpt lat="45.0961" lon="5.87433">
        <ele>1626</ele>
        <time>2022-06-28T15:06:47Z</time>
      </trkpt>
      <trkpt lat="45.09592" lon="5.87424">
        <ele>1628</ele>
        <time>2022-06-28T15:07:13Z</time>
      </trkpt>
      <trkpt lat="45.09582" lon="5.87424">
        <ele>1628</ele>
        <time>2022-06-28T15:07:26Z</time>
      </trkpt>
      <trkpt lat="45.09573" lon="5.87426">
        <ele>1630</ele>
        <time>2022-06-28T15:07:38Z</time>
      </trkpt>
      <trkpt lat="45.09561" lon="5.87439">
        <ele>1630</ele>
        <time>2022-06-28T15:07:58Z</time>
      </trkpt>
      <trkpt lat="45.09552" lon="5.87445">
        <ele>1631</ele>
        <time>2022-06-28T15:08:11Z</time>
      </trkpt>
      <trkpt lat="45.09518" lon="5.87451">
        <ele>1636</ele>
        <time>2022-06-28T15:08:57Z</time>
      </trkpt>
      <trkpt lat="45.09504" lon="5.87448">
        <ele>1639</ele>
        <time>2022-06-28T15:09:16Z</time>
      </trkpt>
      <trkpt lat="45.09491" lon="5.87455">
        <ele>1639</ele>
        <time>2022-06-28T15:09:35Z</time>
      </trkpt>
      <trkpt lat="45.09457" lon="5.8746">
        <ele>1639</ele>
        <time>2022-06-28T15:10:20Z</time>
      </trkpt>
      <trkpt lat="45.09446" lon="5.87459">
        <ele>1639</ele>
        <time>2022-06-28T15:10:35Z</time>
      </trkpt>
      <trkpt lat="45.09434" lon="5.87453">
        <ele>1640</ele>
        <time>2022-06-28T15:10:52Z</time>
      </trkpt>
      <trkpt lat="45.09411" lon="5.87433">
        <ele>1644</ele>
        <time>2022-06-28T15:11:28Z</time>
      </trkpt>
      <trkpt lat="45.09381" lon="5.87425">
        <ele>1643</ele>
        <time>2022-06-28T15:12:09Z</time>
      </trkpt>
      <trkpt lat="45.09367" lon="5.87424">
        <ele>1642</ele>
        <time>2022-06-28T15:12:27Z</time>
      </trkpt>
      <trkpt lat="45.09351" lon="5.87427">
        <ele>1640</ele>
        <time>2022-06-28T15:12:49Z</time>
      </trkpt>
      <trkpt lat="45.09326" lon="5.8744">
        <ele>1638</ele>
        <time>2022-06-28T15:13:24Z</time>
      </trkpt>
      <trkpt lat="45.09277" lon="5.87478">
        <ele>1636</ele>
        <time>2022-06-28T15:14:39Z</time>
      </trkpt>
      <trkpt lat="45.09263" lon="5.87503">
        <ele>1634</ele>
        <time>2022-06-28T15:15:09Z</time>
      </trkpt>
      <trkpt lat="45.09234" lon="5.87523">
        <ele>1632</ele>
        <time>2022-06-28T15:15:52Z</time>
      </trkpt>
      <trkpt lat="45.09209" lon="5.87563">
        <ele>1628</ele>
        <time>2022-06-28T15:16:42Z</time>
      </trkpt>
      <trkpt lat="45.09195" lon="5.87596">
        <ele>1623</ele>
        <time>2022-06-28T15:17:19Z</time>
      </trkpt>
      <trkpt lat="45.09184" lon="5.87631">
        <ele>1618</ele>
        <time>2022-06-28T15:17:55Z</time>
      </trkpt>
      <trkpt lat="45.09199" lon="5.87672">
        <ele>1615</ele>
        <time>2022-06-28T15:18:38Z</time>
      </trkpt>
      <trkpt lat="45.09206" lon="5.87687">
        <ele>1616</ele>
        <time>2022-06-28T15:18:55Z</time>
      </trkpt>
      <trkpt lat="45.09214" lon="5.877">
        <ele>1617</ele>
        <time>2022-06-28T15:19:12Z</time>
      </trkpt>
      <trkpt lat="45.0922" lon="5.87725">
        <ele>1618</ele>
        <time>2022-06-28T15:19:36Z</time>
      </trkpt>
      <trkpt lat="45.0924" lon="5.87777">
        <ele>1619</ele>
        <time>2022-06-28T15:20:32Z</time>
      </trkpt>
      <trkpt lat="45.09261" lon="5.87848">
        <ele>1613</ele>
        <time>2022-06-28T15:21:45Z</time>
      </trkpt>
      <trkpt lat="45.09264" lon="5.87873">
        <ele>1611</ele>
        <time>2022-06-28T15:22:09Z</time>
      </trkpt>
      <trkpt lat="45.09263" lon="5.87887">
        <ele>1609</ele>
        <time>2022-06-28T15:22:22Z</time>
      </trkpt>
      <trkpt lat="45.09277" lon="5.87939">
        <ele>1607</ele>
        <time>2022-06-28T15:23:14Z</time>
      </trkpt>
      <trkpt lat="45.0929" lon="5.87957">
        <ele>1608</ele>
        <time>2022-06-28T15:23:39Z</time>
      </trkpt>
      <trkpt lat="45.09303" lon="5.87969">
        <ele>1609</ele>
        <time>2022-06-28T15:23:59Z</time>
      </trkpt>
      <trkpt lat="45.09335" lon="5.87986">
        <ele>1611</ele>
        <time>2022-06-28T15:24:45Z</time>
      </trkpt>
      <trkpt lat="45.09371" lon="5.87999">
        <ele>1611</ele>
        <time>2022-06-28T15:25:34Z</time>
      </trkpt>
      <trkpt lat="45.09394" lon="5.88011">
        <ele>1609</ele>
        <time>2022-06-28T15:26:07Z</time>
      </trkpt>
      <trkpt lat="45.09449" lon="5.88005">
        <ele>1611</ele>
        <time>2022-06-28T15:27:21Z</time>
      </trkpt>
      <trkpt lat="45.09463" lon="5.88012">
        <ele>1610</ele>
        <time>2022-06-28T15:27:41Z</time>
      </trkpt>
      <trkpt lat="45.0951" lon="5.88242">
        <ele>1612</ele>
        <time>2022-06-28T15:31:26Z</time>
      </trkpt>
      <trkpt lat="45.09709" lon="5.88431">
        <ele>1631</ele>
        <time>2022-06-28T15:36:46Z</time>
      </trkpt>
      <trkpt lat="45.09713" lon="5.88435">
        <ele>1632</ele>
        <time>2022-06-28T15:36:52Z</time>
      </trkpt>
      <trkpt lat="45.09747" lon="5.88441">
        <ele>1629</ele>
        <time>2022-06-28T15:37:38Z</time>
      </trkpt>
      <trkpt lat="45.09768" lon="5.88441">
        <ele>1628</ele>
        <time>2022-06-28T15:38:06Z</time>
      </trkpt>
      <trkpt lat="45.09804" lon="5.88447">
        <ele>1629</ele>
        <time>2022-06-28T15:38:55Z</time>
      </trkpt>
      <trkpt lat="45.09832" lon="5.88461">
        <ele>1631</ele>
        <time>2022-06-28T15:39:34Z</time>
      </trkpt>
      <trkpt lat="45.09875" lon="5.88492">
        <ele>1634</ele>
        <time>2022-06-28T15:40:39Z</time>
      </trkpt>
      <trkpt lat="45.09905" lon="5.8851">
        <ele>1633</ele>
        <time>2022-06-28T15:41:22Z</time>
      </trkpt>
      <trkpt lat="45.1009" lon="5.88765">
        <ele>1652</ele>
        <time>2022-06-28T15:47:06Z</time>
      </trkpt>
      <trkpt lat="45.1009" lon="5.88777">
        <ele>1653</ele>
        <time>2022-06-28T15:47:18Z</time>
      </trkpt>
      <trkpt lat="45.10095" lon="5.88788">
        <ele>1654</ele>
        <time>2022-06-28T15:47:30Z</time>
      </trkpt>
      <trkpt lat="45.10127" lon="5.88835">
        <ele>1656</ele>
        <time>2022-06-28T15:48:32Z</time>
      </trkpt>
      <trkpt lat="45.10155" lon="5.88869">
        <ele>1659</ele>
        <time>2022-06-28T15:49:21Z</time>
      </trkpt>
      <trkpt lat="45.10177" lon="5.88903">
        <ele>1663</ele>
        <time>2022-06-28T15:50:04Z</time>
      </trkpt>
      <trkpt lat="45.10184" lon="5.88916">
        <ele>1665</ele>
        <time>2022-06-28T15:50:20Z</time>
      </trkpt>
      <trkpt lat="45.10185" lon="5.88953">
        <ele>1671</ele>
        <time>2022-06-28T15:50:55Z</time>
      </trkpt>
      <trkpt lat="45.10191" lon="5.88965">
        <ele>1673</ele>
        <time>2022-06-28T15:51:08Z</time>
      </trkpt>
      <trkpt lat="45.10223" lon="5.88991">
        <ele>1674</ele>
        <time>2022-06-28T15:51:58Z</time>
      </trkpt>
      <trkpt lat="45.10234" lon="5.89006">
        <ele>1674</ele>
        <time>2022-06-28T15:52:18Z</time>
      </trkpt>
      <trkpt lat="45.1028" lon="5.89166">
        <ele>1701</ele>
        <time>2022-06-28T15:55:01Z</time>
      </trkpt>
      <trkpt lat="45.103" lon="5.89184">
        <ele>1702</ele>
        <time>2022-06-28T15:55:32Z</time>
      </trkpt>
      <trkpt lat="45.10313" lon="5.89201">
        <ele>1702</ele>
        <time>2022-06-28T15:55:56Z</time>
      </trkpt>
      <trkpt lat="45.1033" lon="5.89218">
        <ele>1702</ele>
        <time>2022-06-28T15:56:24Z</time>
      </trkpt>
      <trkpt lat="45.10335" lon="5.89226">
        <ele>1702</ele>
        <time>2022-06-28T15:56:34Z</time>
      </trkpt>
      <trkpt lat="45.10342" lon="5.89232">
        <ele>1703</ele>
        <time>2022-06-28T15:56:45Z</time>
      </trkpt>
      <trkpt lat="45.10355" lon="5.89234">
        <ele>1705</ele>
        <time>2022-06-28T15:57:02Z</time>
      </trkpt>
      <trkpt lat="45.10388" lon="5.89248">
        <ele>1709</ele>
        <time>2022-06-28T15:57:48Z</time>
      </trkpt>
      <trkpt lat="45.10396" lon="5.89248">
        <ele>1710</ele>
        <time>2022-06-28T15:57:59Z</time>
      </trkpt>
      <trkpt lat="45.10412" lon="5.89243">
        <ele>1711</ele>
        <time>2022-06-28T15:58:21Z</time>
      </trkpt>
      <trkpt lat="45.10421" lon="5.89244">
        <ele>1712</ele>
        <time>2022-06-28T15:58:33Z</time>
      </trkpt>
      <trkpt lat="45.10433" lon="5.89249">
        <ele>1714</ele>
        <time>2022-06-28T15:58:49Z</time>
      </trkpt>
      <trkpt lat="45.10439" lon="5.89253">
        <ele>1715</ele>
        <time>2022-06-28T15:58:58Z</time>
      </trkpt>
      <trkpt lat="45.10482" lon="5.89305">
        <ele>1722</ele>
        <time>2022-06-28T16:00:14Z</time>
      </trkpt>
      <trkpt lat="45.10504" lon="5.89328">
        <ele>1723</ele>
        <time>2022-06-28T16:00:50Z</time>
      </trkpt>
      <trkpt lat="45.10511" lon="5.8933">
        <ele>1724</ele>
        <time>2022-06-28T16:01:00Z</time>
      </trkpt>
      <trkpt lat="45.10518" lon="5.89337">
        <ele>1726</ele>
        <time>2022-06-28T16:01:11Z</time>
      </trkpt>
      <trkpt lat="45.10529" lon="5.89358">
        <ele>1730</ele>
        <time>2022-06-28T16:01:36Z</time>
      </trkpt>
      <trkpt lat="45.10533" lon="5.89375">
        <ele>1733</ele>
        <time>2022-06-28T16:01:53Z</time>
      </trkpt>
      <trkpt lat="45.10537" lon="5.89377">
        <ele>1733</ele>
        <time>2022-06-28T16:01:58Z</time>
      </trkpt>
      <trkpt lat="45.10539" lon="5.89384">
        <ele>1735</ele>
        <time>2022-06-28T16:02:05Z</time>
      </trkpt>
      <trkpt lat="45.10543" lon="5.89389">
        <ele>1736</ele>
        <time>2022-06-28T16:02:13Z</time>
      </trkpt>
      <trkpt lat="45.10553" lon="5.89394">
        <ele>1737</ele>
        <time>2022-06-28T16:02:27Z</time>
      </trkpt>
      <trkpt lat="45.10557" lon="5.89419">
        <ele>1741</ele>
        <time>2022-06-28T16:02:51Z</time>
      </trkpt>
      <trkpt lat="45.10564" lon="5.89429">
        <ele>1743</ele>
        <time>2022-06-28T16:03:04Z</time>
      </trkpt>
      <trkpt lat="45.10572" lon="5.89447">
        <ele>1746</ele>
        <time>2022-06-28T16:03:24Z</time>
      </trkpt>
      <trkpt lat="45.10582" lon="5.89453">
        <ele>1747</ele>
        <time>2022-06-28T16:03:39Z</time>
      </trkpt>
      <trkpt lat="45.10589" lon="5.89464">
        <ele>1750</ele>
        <time>2022-06-28T16:03:53Z</time>
      </trkpt>
      <trkpt lat="45.10591" lon="5.89474">
        <ele>1752</ele>
        <time>2022-06-28T16:04:02Z</time>
      </trkpt>
      <trkpt lat="45.10598" lon="5.89479">
        <ele>1754</ele>
        <time>2022-06-28T16:04:13Z</time>
      </trkpt>
      <trkpt lat="45.10604" lon="5.8948">
        <ele>1755</ele>
        <time>2022-06-28T16:04:21Z</time>
      </trkpt>
      <trkpt lat="45.10605" lon="5.89486">
        <ele>1756</ele>
        <time>2022-06-28T16:04:27Z</time>
      </trkpt>
      <trkpt lat="45.10603" lon="5.89493">
        <ele>1757</ele>
        <time>2022-06-28T16:04:34Z</time>
      </trkpt>
      <trkpt lat="45.1061" lon="5.895">
        <ele>1759</ele>
        <time>2022-06-28T16:04:45Z</time>
      </trkpt>
      <trkpt lat="45.10623" lon="5.89502">
        <ele>1762</ele>
        <time>2022-06-28T16:05:03Z</time>
      </trkpt>
      <trkpt lat="45.10637" lon="5.89508">
        <ele>1766</ele>
        <time>2022-06-28T16:05:22Z</time>
      </trkpt>
      <trkpt lat="45.10646" lon="5.8952">
        <ele>1771</ele>
        <time>2022-06-28T16:05:39Z</time>
      </trkpt>
      <trkpt lat="45.10658" lon="5.89542">
        <ele>1779</ele>
        <time>2022-06-28T16:06:05Z</time>
      </trkpt>
      <trkpt lat="45.10675" lon="5.89555">
        <ele>1786</ele>
        <time>2022-06-28T16:06:31Z</time>
      </trkpt>
      <trkpt lat="45.10686" lon="5.89567">
        <ele>1791</ele>
        <time>2022-06-28T16:06:49Z</time>
      </trkpt>
      <trkpt lat="45.10695" lon="5.89575">
        <ele>1795</ele>
        <time>2022-06-28T16:07:03Z</time>
      </trkpt>
      <trkpt lat="45.1073" lon="5.89594">
        <ele>1806</ele>
        <time>2022-06-28T16:07:53Z</time>
      </trkpt>
      <trkpt lat="45.10791" lon="5.89649">
        <ele>1828</ele>
        <time>2022-06-28T16:09:30Z</time>
      </trkpt>
      <trkpt lat="45.10812" lon="5.89651">
        <ele>1832</ele>
        <time>2022-06-28T16:09:58Z</time>
      </trkpt>
      <trkpt lat="45.10819" lon="5.89656">
        <ele>1834</ele>
        <time>2022-06-28T16:10:08Z</time>
      </trkpt>
      <trkpt lat="45.10826" lon="5.89665">
        <ele>1836</ele>
        <time>2022-06-28T16:10:21Z</time>
      </trkpt>
      <trkpt lat="45.10838" lon="5.89675">
        <ele>1840</ele>
        <time>2022-06-28T16:10:40Z</time>
      </trkpt>
      <trkpt lat="45.10844" lon="5.89685">
        <ele>1843</ele>
        <time>2022-06-28T16:10:52Z</time>
      </trkpt>
      <trkpt lat="45.10847" lon="5.89698">
        <ele>1846</ele>
        <time>2022-06-28T16:11:05Z</time>
      </trkpt>
      <trkpt lat="45.10854" lon="5.89715">
        <ele>1851</ele>
        <time>2022-06-28T16:11:23Z</time>
      </trkpt>
      <trkpt lat="45.10854" lon="5.8973">
        <ele>1853</ele>
        <time>2022-06-28T16:11:38Z</time>
      </trkpt>
      <trkpt lat="45.1085" lon="5.89745">
        <ele>1855</ele>
        <time>2022-06-28T16:11:53Z</time>
      </trkpt>
      <trkpt lat="45.1085" lon="5.89754">
        <ele>1857</ele>
        <time>2022-06-28T16:12:01Z</time>
      </trkpt>
      <trkpt lat="45.10855" lon="5.89774">
        <ele>1861</ele>
        <time>2022-06-28T16:12:21Z</time>
      </trkpt>
      <trkpt lat="45.10862" lon="5.89787">
        <ele>1863</ele>
        <time>2022-06-28T16:12:36Z</time>
      </trkpt>
      <trkpt lat="45.10894" lon="5.89833">
        <ele>1870</ele>
        <time>2022-06-28T16:13:37Z</time>
      </trkpt>
      <trkpt lat="45.10901" lon="5.89848">
        <ele>1871</ele>
        <time>2022-06-28T16:13:54Z</time>
      </trkpt>
      <trkpt lat="45.10902" lon="5.89866">
        <ele>1871</ele>
        <time>2022-06-28T16:14:11Z</time>
      </trkpt>
      <trkpt lat="45.10899" lon="5.89873">
        <ele>1871</ele>
        <time>2022-06-28T16:14:19Z</time>
      </trkpt>
      <trkpt lat="45.10902" lon="5.89887">
        <ele>1872</ele>
        <time>2022-06-28T16:14:33Z</time>
      </trkpt>
      <trkpt lat="45.10905" lon="5.8989">
        <ele>1872</ele>
        <time>2022-06-28T16:14:38Z</time>
      </trkpt>
      <trkpt lat="45.10909" lon="5.89889">
        <ele>1872</ele>
        <time>2022-06-28T16:14:43Z</time>
      </trkpt>
      <trkpt lat="45.10913" lon="5.89891">
        <ele>1871</ele>
        <time>2022-06-28T16:14:49Z</time>
      </trkpt>
      <trkpt lat="45.10916" lon="5.89895">
        <ele>1871</ele>
        <time>2022-06-28T16:14:54Z</time>
      </trkpt>
      <trkpt lat="45.10916" lon="5.899">
        <ele>1872</ele>
        <time>2022-06-28T16:14:59Z</time>
      </trkpt>
      <trkpt lat="45.10924" lon="5.89918">
        <ele>1873</ele>
        <time>2022-06-28T16:15:19Z</time>
      </trkpt>
      <trkpt lat="45.10924" lon="5.89925">
        <ele>1874</ele>
        <time>2022-06-28T16:15:26Z</time>
      </trkpt>
      <trkpt lat="45.10926" lon="5.89931">
        <ele>1874</ele>
        <time>2022-06-28T16:15:32Z</time>
      </trkpt>
      <trkpt lat="45.10929" lon="5.89934">
        <ele>1875</ele>
        <time>2022-06-28T16:15:37Z</time>
      </trkpt>
      <trkpt lat="45.10931" lon="5.89945">
        <ele>1876</ele>
        <time>2022-06-28T16:15:47Z</time>
      </trkpt>
      <trkpt lat="45.10936" lon="5.89956">
        <ele>1878</ele>
        <time>2022-06-28T16:16:00Z</time>
      </trkpt>
      <trkpt lat="45.1094" lon="5.89972">
        <ele>1880</ele>
        <time>2022-06-28T16:16:16Z</time>
      </trkpt>
      <trkpt lat="45.10949" lon="5.89983">
        <ele>1881</ele>
        <time>2022-06-28T16:16:32Z</time>
      </trkpt>
      <trkpt lat="45.10958" lon="5.89986">
        <ele>1881</ele>
        <time>2022-06-28T16:16:44Z</time>
      </trkpt>
      <trkpt lat="45.10961" lon="5.89984">
        <ele>1880</ele>
        <time>2022-06-28T16:16:48Z</time>
      </trkpt>
      <trkpt lat="45.10994" lon="5.90008">
        <ele>1880</ele>
        <time>2022-06-28T16:17:38Z</time>
      </trkpt>
      <trkpt lat="45.11009" lon="5.90042">
        <ele>1882</ele>
        <time>2022-06-28T16:18:16Z</time>
      </trkpt>
      <trkpt lat="45.11022" lon="5.90056">
        <ele>1885</ele>
        <time>2022-06-28T16:18:37Z</time>
      </trkpt>
      <trkpt lat="45.11029" lon="5.90058">
        <ele>1886</ele>
        <time>2022-06-28T16:18:47Z</time>
      </trkpt>
      <trkpt lat="45.11041" lon="5.90067">
        <ele>1889</ele>
        <time>2022-06-28T16:19:05Z</time>
      </trkpt>
      <trkpt lat="45.1105" lon="5.90068">
        <ele>1891</ele>
        <time>2022-06-28T16:19:17Z</time>
      </trkpt>
      <trkpt lat="45.11055" lon="5.90078">
        <ele>1892</ele>
        <time>2022-06-28T16:19:29Z</time>
      </trkpt>
      <trkpt lat="45.11057" lon="5.90105">
        <ele>1894</ele>
        <time>2022-06-28T16:19:54Z</time>
      </trkpt>
      <trkpt lat="45.1106" lon="5.9011">
        <ele>1895</ele>
        <time>2022-06-28T16:20:00Z</time>
      </trkpt>
      <trkpt lat="45.11067" lon="5.90112">
        <ele>1897</ele>
        <time>2022-06-28T16:20:10Z</time>
      </trkpt>
      <trkpt lat="45.1107" lon="5.90118">
        <ele>1898</ele>
        <time>2022-06-28T16:20:17Z</time>
      </trkpt>
      <trkpt lat="45.11078" lon="5.90117">
        <ele>1900</ele>
        <time>2022-06-28T16:20:28Z</time>
      </trkpt>
      <trkpt lat="45.11083" lon="5.90113">
        <ele>1901</ele>
        <time>2022-06-28T16:20:35Z</time>
      </trkpt>
      <trkpt lat="45.11087" lon="5.90115">
        <ele>1902</ele>
        <time>2022-06-28T16:20:41Z</time>
      </trkpt>
      <trkpt lat="45.11092" lon="5.90121">
        <ele>1903</ele>
        <time>2022-06-28T16:20:50Z</time>
      </trkpt>
      <trkpt lat="45.11099" lon="5.90116">
        <ele>1905</ele>
        <time>2022-06-28T16:21:00Z</time>
      </trkpt>
      <trkpt lat="45.11101" lon="5.90118">
        <ele>1905</ele>
        <time>2022-06-28T16:21:03Z</time>
      </trkpt>
      <trkpt lat="45.11103" lon="5.90127">
        <ele>1906</ele>
        <time>2022-06-28T16:21:12Z</time>
      </trkpt>
      <trkpt lat="45.11108" lon="5.90132">
        <ele>1908</ele>
        <time>2022-06-28T16:21:20Z</time>
      </trkpt>
      <trkpt lat="45.11114" lon="5.90131">
        <ele>1909</ele>
        <time>2022-06-28T16:21:28Z</time>
      </trkpt>
      <trkpt lat="45.11131" lon="5.90142">
        <ele>1913</ele>
        <time>2022-06-28T16:21:53Z</time>
      </trkpt>
      <trkpt lat="45.11138" lon="5.9014">
        <ele>1914</ele>
        <time>2022-06-28T16:22:03Z</time>
      </trkpt>
      <trkpt lat="45.11151" lon="5.90143">
        <ele>1917</ele>
        <time>2022-06-28T16:22:20Z</time>
      </trkpt>
      <trkpt lat="45.11181" lon="5.90154">
        <ele>1920</ele>
        <time>2022-06-28T16:23:02Z</time>
      </trkpt>
      <trkpt lat="45.11203" lon="5.90178">
        <ele>1921</ele>
        <time>2022-06-28T16:23:39Z</time>
      </trkpt>
      <trkpt lat="45.11219" lon="5.90189">
        <ele>1921</ele>
        <time>2022-06-28T16:24:03Z</time>
      </trkpt>
      <trkpt lat="45.11224" lon="5.90188">
        <ele>1920</ele>
        <time>2022-06-28T16:24:09Z</time>
      </trkpt>
      <trkpt lat="45.11241" lon="5.90174">
        <ele>1918</ele>
        <time>2022-06-28T16:24:36Z</time>
      </trkpt>
      <trkpt lat="45.11254" lon="5.90166">
        <ele>1916</ele>
        <time>2022-06-28T16:24:55Z</time>
      </trkpt>
      <trkpt lat="45.11273" lon="5.90168">
        <ele>1916</ele>
        <time>2022-06-28T16:25:20Z</time>
      </trkpt>
      <trkpt lat="45.11287" lon="5.90166">
        <ele>1916</ele>
        <time>2022-06-28T16:25:39Z</time>
      </trkpt>
      <trkpt lat="45.11284" lon="5.90176">
        <ele>1917</ele>
        <time>2022-06-28T16:25:49Z</time>
      </trkpt>
      <trkpt lat="45.11287" lon="5.90166">
        <ele>1916</ele>
        <time>2022-06-28T16:25:59Z</time>
      </trkpt>
      <trkpt lat="45.11287" lon="5.90134">
        <ele>1917</ele>
        <time>2022-06-28T16:26:29Z</time>
      </trkpt>
      <trkpt lat="45.11279" lon="5.90113">
        <ele>1918</ele>
        <time>2022-06-28T16:26:52Z</time>
      </trkpt>
      <trkpt lat="45.11267" lon="5.90095">
        <ele>1918</ele>
        <time>2022-06-28T16:27:15Z</time>
      </trkpt>
      <trkpt lat="45.11253" lon="5.90057">
        <ele>1924</ele>
        <time>2022-06-28T16:27:55Z</time>
      </trkpt>
      <trkpt lat="45.11237" lon="5.90024">
        <ele>1928</ele>
        <time>2022-06-28T16:28:33Z</time>
      </trkpt>
      <trkpt lat="45.11193" lon="5.90001">
        <ele>1921</ele>
        <time>2022-06-28T16:29:36Z</time>
      </trkpt>
      <trkpt lat="45.11173" lon="5.89966">
        <ele>1924</ele>
        <time>2022-06-28T16:30:18Z</time>
      </trkpt>
      <trkpt lat="45.11162" lon="5.8995">
        <ele>1924</ele>
        <time>2022-06-28T16:30:39Z</time>
      </trkpt>
      <trkpt lat="45.11138" lon="5.89935">
        <ele>1919</ele>
        <time>2022-06-28T16:31:14Z</time>
      </trkpt>
      <trkpt lat="45.11125" lon="5.89923">
        <ele>1916</ele>
        <time>2022-06-28T16:31:35Z</time>
      </trkpt>
      <trkpt lat="45.11115" lon="5.89908">
        <ele>1914</ele>
        <time>2022-06-28T16:31:54Z</time>
      </trkpt>
      <trkpt lat="45.11113" lon="5.89898">
        <ele>1915</ele>
        <time>2022-06-28T16:32:04Z</time>
      </trkpt>
      <trkpt lat="45.11111" lon="5.89877">
        <ele>1916</ele>
        <time>2022-06-28T16:32:24Z</time>
      </trkpt>
      <trkpt lat="45.11114" lon="5.89866">
        <ele>1919</ele>
        <time>2022-06-28T16:32:35Z</time>
      </trkpt>
      <trkpt lat="45.11108" lon="5.89828">
        <ele>1919</ele>
        <time>2022-06-28T16:33:12Z</time>
      </trkpt>
      <trkpt lat="45.11111" lon="5.89818">
        <ele>1921</ele>
        <time>2022-06-28T16:33:22Z</time>
      </trkpt>
      <trkpt lat="45.1111" lon="5.89791">
        <ele>1922</ele>
        <time>2022-06-28T16:33:48Z</time>
      </trkpt>
      <trkpt lat="45.11111" lon="5.89777">
        <ele>1923</ele>
        <time>2022-06-28T16:34:01Z</time>
      </trkpt>
      <trkpt lat="45.11116" lon="5.89767">
        <ele>1926</ele>
        <time>2022-06-28T16:34:12Z</time>
      </trkpt>
      <trkpt lat="45.11118" lon="5.89757">
        <ele>1927</ele>
        <time>2022-06-28T16:34:22Z</time>
      </trkpt>
      <trkpt lat="45.11123" lon="5.89749">
        <ele>1930</ele>
        <time>2022-06-28T16:34:32Z</time>
      </trkpt>
      <trkpt lat="45.11123" lon="5.89729">
        <ele>1930</ele>
        <time>2022-06-28T16:34:51Z</time>
      </trkpt>
      <trkpt lat="45.11134" lon="5.89676">
        <ele>1933</ele>
        <time>2022-06-28T16:35:43Z</time>
      </trkpt>
      <trkpt lat="45.11138" lon="5.89648">
        <ele>1935</ele>
        <time>2022-06-28T16:36:10Z</time>
      </trkpt>
      <trkpt lat="45.11135" lon="5.89622">
        <ele>1934</ele>
        <time>2022-06-28T16:36:35Z</time>
      </trkpt>
      <trkpt lat="45.11123" lon="5.89595">
        <ele>1930</ele>
        <time>2022-06-28T16:37:05Z</time>
      </trkpt>
      <trkpt lat="45.11128" lon="5.89584">
        <ele>1933</ele>
        <time>2022-06-28T16:37:17Z</time>
      </trkpt>
      <trkpt lat="45.11141" lon="5.89562">
        <ele>1937</ele>
        <time>2022-06-28T16:37:44Z</time>
      </trkpt>
      <trkpt lat="45.11147" lon="5.89531">
        <ele>1939</ele>
        <time>2022-06-28T16:38:14Z</time>
      </trkpt>
      <trkpt lat="45.11147" lon="5.8952">
        <ele>1939</ele>
        <time>2022-06-28T16:38:25Z</time>
      </trkpt>
      <trkpt lat="45.11152" lon="5.89515">
        <ele>1941</ele>
        <time>2022-06-28T16:38:33Z</time>
      </trkpt>
      <trkpt lat="45.11154" lon="5.89505">
        <ele>1942</ele>
        <time>2022-06-28T16:38:43Z</time>
      </trkpt>
      <trkpt lat="45.11154" lon="5.89501">
        <ele>1942</ele>
        <time>2022-06-28T16:38:47Z</time>
      </trkpt>
      <trkpt lat="45.11159" lon="5.89454">
        <ele>1940</ele>
        <time>2022-06-28T16:39:31Z</time>
      </trkpt>
      <trkpt lat="45.11164" lon="5.89444">
        <ele>1941</ele>
        <time>2022-06-28T16:39:43Z</time>
      </trkpt>
      <trkpt lat="45.11175" lon="5.89384">
        <ele>1937</ele>
        <time>2022-06-28T16:40:41Z</time>
      </trkpt>
      <trkpt lat="45.11188" lon="5.89341">
        <ele>1935</ele>
        <time>2022-06-28T16:41:25Z</time>
      </trkpt>
      <trkpt lat="45.11204" lon="5.89315">
        <ele>1938</ele>
        <time>2022-06-28T16:41:58Z</time>
      </trkpt>
      <trkpt lat="45.11206" lon="5.89308">
        <ele>1938</ele>
        <time>2022-06-28T16:42:05Z</time>
      </trkpt>
      <trkpt lat="45.11206" lon="5.89294">
        <ele>1938</ele>
        <time>2022-06-28T16:42:18Z</time>
      </trkpt>
      <trkpt lat="45.11214" lon="5.89273">
        <ele>1939</ele>
        <time>2022-06-28T16:42:41Z</time>
      </trkpt>
      <trkpt lat="45.11221" lon="5.89262">
        <ele>1941</ele>
        <time>2022-06-28T16:42:55Z</time>
      </trkpt>
      <trkpt lat="45.11218" lon="5.89253">
        <ele>1940</ele>
        <time>2022-06-28T16:43:04Z</time>
      </trkpt>
      <trkpt lat="45.11209" lon="5.89246">
        <ele>1937</ele>
        <time>2022-06-28T16:43:18Z</time>
      </trkpt>
      <trkpt lat="45.11206" lon="5.89239">
        <ele>1936</ele>
        <time>2022-06-28T16:43:25Z</time>
      </trkpt>
      <trkpt lat="45.11208" lon="5.89231">
        <ele>1936</ele>
        <time>2022-06-28T16:43:33Z</time>
      </trkpt>
      <trkpt lat="45.11199" lon="5.89208">
        <ele>1933</ele>
        <time>2022-06-28T16:43:58Z</time>
      </trkpt>
      <trkpt lat="45.11189" lon="5.89191">
        <ele>1929</ele>
        <time>2022-06-28T16:44:19Z</time>
      </trkpt>
      <trkpt lat="45.11181" lon="5.89161">
        <ele>1926</ele>
        <time>2022-06-28T16:44:49Z</time>
      </trkpt>
      <trkpt lat="45.11169" lon="5.89139">
        <ele>1923</ele>
        <time>2022-06-28T16:45:15Z</time>
      </trkpt>
      <trkpt lat="45.11164" lon="5.89122">
        <ele>1923</ele>
        <time>2022-06-28T16:45:33Z</time>
      </trkpt>
      <trkpt lat="45.11158" lon="5.8911">
        <ele>1922</ele>
        <time>2022-06-28T16:45:46Z</time>
      </trkpt>
      <trkpt lat="45.11145" lon="5.89092">
        <ele>1919</ele>
        <time>2022-06-28T16:46:11Z</time>
      </trkpt>
      <trkpt lat="45.11143" lon="5.89081">
        <ele>1919</ele>
        <time>2022-06-28T16:46:21Z</time>
      </trkpt>
      <trkpt lat="45.11134" lon="5.89061">
        <ele>1919</ele>
        <time>2022-06-28T16:46:44Z</time>
      </trkpt>
      <trkpt lat="45.11125" lon="5.89058">
        <ele>1917</ele>
        <time>2022-06-28T16:46:56Z</time>
      </trkpt>
      <trkpt lat="45.11117" lon="5.89049">
        <ele>1916</ele>
        <time>2022-06-28T16:47:10Z</time>
      </trkpt>
      <trkpt lat="45.11106" lon="5.89045">
        <ele>1913</ele>
        <time>2022-06-28T16:47:25Z</time>
      </trkpt>
      <trkpt lat="45.11096" lon="5.89037">
        <ele>1912</ele>
        <time>2022-06-28T16:47:40Z</time>
      </trkpt>
      <trkpt lat="45.11091" lon="5.89026">
        <ele>1912</ele>
        <time>2022-06-28T16:47:53Z</time>
      </trkpt>
      <trkpt lat="45.11077" lon="5.89004">
        <ele>1912</ele>
        <time>2022-06-28T16:48:20Z</time>
      </trkpt>
      <trkpt lat="45.11068" lon="5.89">
        <ele>1910</ele>
        <time>2022-06-28T16:48:33Z</time>
      </trkpt>
      <trkpt lat="45.11063" lon="5.88987">
        <ele>1908</ele>
        <time>2022-06-28T16:48:47Z</time>
      </trkpt>
      <trkpt lat="45.11059" lon="5.88975">
        <ele>1907</ele>
        <time>2022-06-28T16:48:59Z</time>
      </trkpt>
      <trkpt lat="45.11053" lon="5.88966">
        <ele>1905</ele>
        <time>2022-06-28T16:49:11Z</time>
      </trkpt>
      <trkpt lat="45.11052" lon="5.88957">
        <ele>1904</ele>
        <time>2022-06-28T16:49:20Z</time>
      </trkpt>
      <trkpt lat="45.11055" lon="5.88952">
        <ele>1905</ele>
        <time>2022-06-28T16:49:26Z</time>
      </trkpt>
      <trkpt lat="45.1105" lon="5.88946">
        <ele>1904</ele>
        <time>2022-06-28T16:49:35Z</time>
      </trkpt>
      <trkpt lat="45.11033" lon="5.88887">
        <ele>1897</ele>
        <time>2022-06-28T16:50:35Z</time>
      </trkpt>
      <trkpt lat="45.11025" lon="5.88877">
        <ele>1894</ele>
        <time>2022-06-28T16:50:49Z</time>
      </trkpt>
      <trkpt lat="45.11019" lon="5.88847">
        <ele>1889</ele>
        <time>2022-06-28T16:51:18Z</time>
      </trkpt>
      <trkpt lat="45.11013" lon="5.88844">
        <ele>1888</ele>
        <time>2022-06-28T16:51:27Z</time>
      </trkpt>
      <trkpt lat="45.11003" lon="5.88833">
        <ele>1885</ele>
        <time>2022-06-28T16:51:44Z</time>
      </trkpt>
      <trkpt lat="45.10987" lon="5.888">
        <ele>1877</ele>
        <time>2022-06-28T16:52:21Z</time>
      </trkpt>
      <trkpt lat="45.10982" lon="5.88782">
        <ele>1874</ele>
        <time>2022-06-28T16:52:40Z</time>
      </trkpt>
      <trkpt lat="45.10973" lon="5.8872">
        <ele>1864</ele>
        <time>2022-06-28T16:53:39Z</time>
      </trkpt>
      <trkpt lat="45.10968" lon="5.88674">
        <ele>1858</ele>
        <time>2022-06-28T16:54:23Z</time>
      </trkpt>
      <trkpt lat="45.10967" lon="5.88648">
        <ele>1856</ele>
        <time>2022-06-28T16:54:48Z</time>
      </trkpt>
      <trkpt lat="45.10969" lon="5.88635">
        <ele>1855</ele>
        <time>2022-06-28T16:55:00Z</time>
      </trkpt>
      <trkpt lat="45.10973" lon="5.88628">
        <ele>1855</ele>
        <time>2022-06-28T16:55:09Z</time>
      </trkpt>
      <trkpt lat="45.10975" lon="5.88617">
        <ele>1855</ele>
        <time>2022-06-28T16:55:19Z</time>
      </trkpt>
      <trkpt lat="45.10979" lon="5.88609">
        <ele>1855</ele>
        <time>2022-06-28T16:55:28Z</time>
      </trkpt>
      <trkpt lat="45.1098" lon="5.886">
        <ele>1854</ele>
        <time>2022-06-28T16:55:37Z</time>
      </trkpt>
      <trkpt lat="45.10978" lon="5.88591">
        <ele>1854</ele>
        <time>2022-06-28T16:55:46Z</time>
      </trkpt>
      <trkpt lat="45.10979" lon="5.88579">
        <ele>1853</ele>
        <time>2022-06-28T16:55:57Z</time>
      </trkpt>
      <trkpt lat="45.1098" lon="5.88566">
        <ele>1853</ele>
        <time>2022-06-28T16:56:10Z</time>
      </trkpt>
      <trkpt lat="45.10979" lon="5.88549">
        <ele>1852</ele>
        <time>2022-06-28T16:56:26Z</time>
      </trkpt>
      <trkpt lat="45.10982" lon="5.88516">
        <ele>1850</ele>
        <time>2022-06-28T16:56:57Z</time>
      </trkpt>
      <trkpt lat="45.10985" lon="5.88501">
        <ele>1850</ele>
        <time>2022-06-28T16:57:12Z</time>
      </trkpt>
      <trkpt lat="45.10996" lon="5.88474">
        <ele>1849</ele>
        <time>2022-06-28T16:57:41Z</time>
      </trkpt>
      <trkpt lat="45.11001" lon="5.88474">
        <ele>1850</ele>
        <time>2022-06-28T16:57:48Z</time>
      </trkpt>
      <trkpt lat="45.11006" lon="5.88467">
        <ele>1850</ele>
        <time>2022-06-28T16:57:57Z</time>
      </trkpt>
      <trkpt lat="45.1101" lon="5.88455">
        <ele>1849</ele>
        <time>2022-06-28T16:58:10Z</time>
      </trkpt>
      <trkpt lat="45.11012" lon="5.88441">
        <ele>1848</ele>
        <time>2022-06-28T16:58:23Z</time>
      </trkpt>
      <trkpt lat="45.11023" lon="5.884">
        <ele>1844</ele>
        <time>2022-06-28T16:59:04Z</time>
      </trkpt>
      <trkpt lat="45.11024" lon="5.88383">
        <ele>1842</ele>
        <time>2022-06-28T16:59:20Z</time>
      </trkpt>
      <trkpt lat="45.11021" lon="5.88358">
        <ele>1839</ele>
        <time>2022-06-28T16:59:44Z</time>
      </trkpt>
      <trkpt lat="45.11012" lon="5.88323">
        <ele>1835</ele>
        <time>2022-06-28T17:00:19Z</time>
      </trkpt>
      <trkpt lat="45.1101" lon="5.88306">
        <ele>1832</ele>
        <time>2022-06-28T17:00:36Z</time>
      </trkpt>
      <trkpt lat="45.11037" lon="5.8832">
        <ele>1834</ele>
        <time>2022-06-28T17:01:14Z</time>
      </trkpt>
      <trkpt lat="45.11051" lon="5.88312">
        <ele>1833</ele>
        <time>2022-06-28T17:01:34Z</time>
      </trkpt>
      <trkpt lat="45.11063" lon="5.883">
        <ele>1832</ele>
        <time>2022-06-28T17:01:54Z</time>
      </trkpt>
      <trkpt lat="45.11077" lon="5.8828">
        <ele>1829</ele>
        <time>2022-06-28T17:02:20Z</time>
      </trkpt>
      <trkpt lat="45.11085" lon="5.88256">
        <ele>1826</ele>
        <time>2022-06-28T17:02:45Z</time>
      </trkpt>
      <trkpt lat="45.11089" lon="5.88229">
        <ele>1824</ele>
        <time>2022-06-28T17:03:11Z</time>
      </trkpt>
      <trkpt lat="45.11111" lon="5.88207">
        <ele>1824</ele>
        <time>2022-06-28T17:03:47Z</time>
      </trkpt>
      <trkpt lat="45.1114" lon="5.88172">
        <ele>1819</ele>
        <time>2022-06-28T17:04:38Z</time>
      </trkpt>
      <trkpt lat="45.11147" lon="5.88158">
        <ele>1817</ele>
        <time>2022-06-28T17:04:54Z</time>
      </trkpt>
      <trkpt lat="45.11148" lon="5.8814">
        <ele>1814</ele>
        <time>2022-06-28T17:05:11Z</time>
      </trkpt>
      <trkpt lat="45.11146" lon="5.88109">
        <ele>1809</ele>
        <time>2022-06-28T17:05:41Z</time>
      </trkpt>
      <trkpt lat="45.11142" lon="5.88094">
        <ele>1806</ele>
        <time>2022-06-28T17:05:56Z</time>
      </trkpt>
      <trkpt lat="45.11142" lon="5.88085">
        <ele>1805</ele>
        <time>2022-06-28T17:06:04Z</time>
      </trkpt>
      <trkpt lat="45.11145" lon="5.88077">
        <ele>1803</ele>
        <time>2022-06-28T17:06:13Z</time>
      </trkpt>
      <trkpt lat="45.11149" lon="5.88072">
        <ele>1802</ele>
        <time>2022-06-28T17:06:20Z</time>
      </trkpt>
      <trkpt lat="45.11147" lon="5.88057">
        <ele>1800</ele>
        <time>2022-06-28T17:06:34Z</time>
      </trkpt>
      <trkpt lat="45.11153" lon="5.88039">
        <ele>1797</ele>
        <time>2022-06-28T17:06:53Z</time>
      </trkpt>
      <trkpt lat="45.11157" lon="5.88019">
        <ele>1794</ele>
        <time>2022-06-28T17:07:12Z</time>
      </trkpt>
      <trkpt lat="45.11171" lon="5.87968">
        <ele>1788</ele>
        <time>2022-06-28T17:08:04Z</time>
      </trkpt>
      <trkpt lat="45.1117" lon="5.87926">
        <ele>1784</ele>
        <time>2022-06-28T17:08:44Z</time>
      </trkpt>
      <trkpt lat="45.11171" lon="5.87908">
        <ele>1783</ele>
        <time>2022-06-28T17:09:01Z</time>
      </trkpt>
      <trkpt lat="45.11171" lon="5.87905">
        <ele>1782</ele>
        <time>2022-06-28T17:09:03Z</time>
      </trkpt>
      <trkpt lat="45.11147" lon="5.87886">
        <ele>1779</ele>
        <time>2022-06-28T17:09:40Z</time>
      </trkpt>
      <trkpt lat="45.11128" lon="5.87861">
        <ele>1776</ele>
        <time>2022-06-28T17:10:15Z</time>
      </trkpt>
      <trkpt lat="45.11115" lon="5.87838">
        <ele>1773</ele>
        <time>2022-06-28T17:10:42Z</time>
      </trkpt>
      <trkpt lat="45.11104" lon="5.87827">
        <ele>1772</ele>
        <time>2022-06-28T17:11:00Z</time>
      </trkpt>
      <trkpt lat="45.11088" lon="5.87816">
        <ele>1769</ele>
        <time>2022-06-28T17:11:24Z</time>
      </trkpt>
      <trkpt lat="45.11053" lon="5.87774">
        <ele>1763</ele>
        <time>2022-06-28T17:12:25Z</time>
      </trkpt>
      <trkpt lat="45.11035" lon="5.87763">
        <ele>1761</ele>
        <time>2022-06-28T17:12:52Z</time>
      </trkpt>
      <trkpt lat="45.1102" lon="5.8776">
        <ele>1760</ele>
        <time>2022-06-28T17:13:12Z</time>
      </trkpt>
      <trkpt lat="45.11013" lon="5.87762">
        <ele>1760</ele>
        <time>2022-06-28T17:13:21Z</time>
      </trkpt>
      <trkpt lat="45.11005" lon="5.87719">
        <ele>1755</ele>
        <time>2022-06-28T17:14:03Z</time>
      </trkpt>
      <trkpt lat="45.10997" lon="5.87686">
        <ele>1752</ele>
        <time>2022-06-28T17:14:36Z</time>
      </trkpt>
      <trkpt lat="45.11" lon="5.87657">
        <ele>1750</ele>
        <time>2022-06-28T17:15:04Z</time>
      </trkpt>
      <trkpt lat="45.11007" lon="5.8765">
        <ele>1749</ele>
        <time>2022-06-28T17:15:15Z</time>
      </trkpt>
      <trkpt lat="45.11025" lon="5.87646">
        <ele>1749</ele>
        <time>2022-06-28T17:15:39Z</time>
      </trkpt>
      <trkpt lat="45.11034" lon="5.87633">
        <ele>1748</ele>
        <time>2022-06-28T17:15:57Z</time>
      </trkpt>
      <trkpt lat="45.11041" lon="5.87604">
        <ele>1746</ele>
        <time>2022-06-28T17:16:25Z</time>
      </trkpt>
      <trkpt lat="45.11056" lon="5.87583">
        <ele>1743</ele>
        <time>2022-06-28T17:16:54Z</time>
      </trkpt>
      <trkpt lat="45.11039" lon="5.87575">
        <ele>1743</ele>
        <time>2022-06-28T17:17:17Z</time>
      </trkpt>
      <trkpt lat="45.11026" lon="5.87572">
        <ele>1743</ele>
        <time>2022-06-28T17:17:35Z</time>
      </trkpt>
      <trkpt lat="45.11017" lon="5.87576">
        <ele>1745</ele>
        <time>2022-06-28T17:17:48Z</time>
      </trkpt>
      <trkpt lat="45.1089" lon="5.87565">
        <ele>1744</ele>
        <time>2022-06-28T17:20:37Z</time>
      </trkpt>
      <trkpt lat="45.10867" lon="5.87563">
        <ele>1744</ele>
        <time>2022-06-28T17:21:08Z</time>
      </trkpt>
      <trkpt lat="45.10853" lon="5.87555">
        <ele>1743</ele>
        <time>2022-06-28T17:21:28Z</time>
      </trkpt>
      <trkpt lat="45.10765" lon="5.87547">
        <ele>1742</ele>
        <time>2022-06-28T17:23:26Z</time>
      </trkpt>
      <trkpt lat="45.10758" lon="5.87542">
        <ele>1742</ele>
        <time>2022-06-28T17:23:36Z</time>
      </trkpt>
      <trkpt lat="45.10754" lon="5.87533">
        <ele>1740</ele>
        <time>2022-06-28T17:23:46Z</time>
      </trkpt>
      <trkpt lat="45.10746" lon="5.87529">
        <ele>1739</ele>
        <time>2022-06-28T17:23:58Z</time>
      </trkpt>
      <trkpt lat="45.10657" lon="5.87539">
        <ele>1737</ele>
        <time>2022-06-28T17:25:57Z</time>
      </trkpt>
      <trkpt lat="45.10531" lon="5.87564">
        <ele>1731</ele>
        <time>2022-06-28T17:28:47Z</time>
      </trkpt>
      <trkpt lat="45.10545" lon="5.87546">
        <ele>1730</ele>
        <time>2022-06-28T17:29:12Z</time>
      </trkpt>
      <trkpt lat="45.10529" lon="5.87503">
        <ele>1727</ele>
        <time>2022-06-28T17:29:58Z</time>
      </trkpt>
      <trkpt lat="45.10521" lon="5.87494">
        <ele>1725</ele>
        <time>2022-06-28T17:30:11Z</time>
      </trkpt>
      <trkpt lat="45.10511" lon="5.87493">
        <ele>1725</ele>
        <time>2022-06-28T17:30:25Z</time>
      </trkpt>
      <trkpt lat="45.10508" lon="5.87498">
        <ele>1726</ele>
        <time>2022-06-28T17:30:31Z</time>
      </trkpt>
      <trkpt lat="45.10507" lon="5.87566">
        <ele>1730</ele>
        <time>2022-06-28T17:31:35Z</time>
      </trkpt>
      <trkpt lat="45.10504" lon="5.87573">
        <ele>1731</ele>
        <time>2022-06-28T17:31:43Z</time>
      </trkpt>
      <trkpt lat="45.10497" lon="5.87573">
        <ele>1730</ele>
        <time>2022-06-28T17:31:52Z</time>
      </trkpt>
    </trkseg>
  </trk>
</gpx>